Location: Capelle
(50.3413°N, 1.9974°E)
Time: 23:18:47
(UTC+00:00)

Cosmos 1340 Rocket - Pass Details

Date: 12 January 2026
Orbit: 486 x 516 km, 81.2° (Epoch: 7 February)

Event Time Altitude Azimuth Distance (km) Brightness Sun altitude
Rises 18:35:59 0° 348° (NNW) 2,618 6.3 -22.0°
Reaches altitude 10° 18:38:07 10° 349° (N) 1,733 5.4 -22.3°
Enters shadow 18:39:45 25° 351° (N) 1,078 4.3 -22.6°
